Williamsport, PA

7:55 AM EDT on July 28, 2017 (GMT -0400)
Williamsport Rgnl

Weather History for KIPT - May, 2014

Change the Weather History Date:

Tuesday, May 13, 2014

  Actual Average Record
Temperature  
Mean Temperature 72 °F 59 °F  
Max Temperature 86 °F 71 °F 90 °F (1991)
Min Temperature 57 °F 47 °F 30 °F (1941)
Degree Days  
Heating Degree Days 0 7  
Month to date heating degree days 79 112  
Since 1 July heating degree days 6394 5867  
Cooling Degree Days 7 1  
Month to date cooling degree days 17 8  
Year to date cooling degree days 26 13  
Growing Degree Days 22 (Base 50)    
Moisture  
Dew Point 59 °F    
Average Humidity 68    
Maximum Humidity 93    
Minimum Humidity 42    
Precipitation  
Precipitation 0.07 in 0.12 in 1.54 in (2002)
Month to date precipitation 0.42 1.48  
Year to date precipitation 9.98 12.73  
Snow  
Snow 0.00 in 0.00 in 0.00 in (2002)
Month to date snowfall 0.0 0.0  
Since 1 July snowfall 45.9 36.0  
Snow Depth 0.00 in    
Sea Level Pressure  
Sea Level Pressure 30.08 in    
Wind  
Wind Speed 6 mph (ESE)    
Max Wind Speed 25 mph    
Max Gust Speed 37 mph    
Visibility 10 miles    
Events Rain    
T = Trace of Precipitation, MM = Missing Value Source: NWS Daily Summary

Daily Weather History Graph

Daily Weather History Graph

Search for Another Location

Airport or City:

Trip Planner

Search our weather history database for the weather conditions in past years. The results will help you decide how hot, cold, wet, or windy it might be!

Date:

Astronomy

May. 13, 2014 Rise Set
Actual Time 5:51 AM EDT 8:17 PM EDT
Civil Twilight 5:20 AM EDT 8:48 PM EDT
Nautical Twilight 4:41 AM EDT 9:27 PM EDT
Astronomical Twilight 3:58 AM EDT 10:10 PM EDT
Moon 7:15 PM EDT (5/13) 5:07 AM EDT (5/13)
Length of Visible Light 15h 28m
Length of Day
14h 26m
Waxing Gibbous, 98% of the Moon is Illuminated
May 13
Waxing Gibbous
May 14
Full
May 21
Last Quarter
May 28
New
Jun 5
First Quarter

Hourly Weather History & Observations

Time (EDT) Temp. Heat Index Dew Point Humidity Pressure Visibility Wind Dir Wind Speed Gust Speed Precip Events Conditions
12:54 AM 62.1 °F - 57.0 °F 84% 30.04 in 10.0 mi Calm Calm - N/A   Clear
1:54 AM 59.0 °F - 55.4 °F 88% 30.05 in 10.0 mi NNW 3.5 mph - N/A   Clear
2:54 AM 57.9 °F - 55.0 °F 90% 30.06 in 10.0 mi WNW 4.6 mph - N/A   Clear
3:54 AM 57.9 °F - 55.9 °F 93% 30.05 in 10.0 mi Calm Calm - N/A   Clear
4:54 AM 57.9 °F - 55.9 °F 93% 30.05 in 10.0 mi Calm Calm - N/A   Clear
5:54 AM 57.9 °F - 55.0 °F 90% 30.07 in 10.0 mi Calm Calm - N/A   Clear
6:54 AM 60.1 °F - 55.9 °F 86% 30.09 in 10.0 mi Calm Calm - N/A   Clear
7:54 AM 63.0 °F - 57.9 °F 84% 30.11 in 10.0 mi Calm Calm - N/A   Mostly Cloudy
8:54 AM 64.4 °F - 59.0 °F 83% 30.13 in 10.0 mi WNW 3.5 mph - N/A   Mostly Cloudy
9:54 AM 64.9 °F - 60.1 °F 84% 30.13 in 10.0 mi Calm Calm - N/A   Mostly Cloudy
10:54 AM 64.9 °F - 61.0 °F 87% 30.12 in 7.0 mi East 5.8 mph - 0.05 in Rain Light Rain
11:54 AM 66.2 °F - 62.6 °F 88% 30.12 in 7.0 mi Calm Calm - N/A   Overcast
12:54 PM 72.0 °F - 64.0 °F 76% 30.11 in 10.0 mi Calm Calm - N/A   Partly Cloudy
1:54 PM 75.9 °F - 64.9 °F 69% 30.09 in 10.0 mi ESE 5.8 mph - N/A   Partly Cloudy
2:54 PM 82.0 °F 83.4 °F 64.0 °F 54% 30.07 in 10.0 mi ESE 5.8 mph - N/A   Clear
3:54 PM 84.9 °F 85.9 °F 63.0 °F 48% 30.04 in 10.0 mi East 6.9 mph - N/A   Clear
4:54 PM 86.0 °F 86.1 °F 61.0 °F 43% 30.02 in 10.0 mi Variable 4.6 mph - N/A   Clear
5:54 PM 84.9 °F 84.8 °F 60.1 °F 43% 30.02 in 10.0 mi SSE 13.8 mph 20.7 mph N/A   Scattered Clouds
6:54 PM 82.9 °F 84.4 °F 64.0 °F 53% 30.03 in 10.0 mi SSE 16.1 mph 21.9 mph N/A   Partly Cloudy
7:54 PM 79.0 °F - 62.1 °F 56% 30.04 in 10.0 mi SSE 18.4 mph 31.1 mph N/A   Clear
8:54 PM 75.0 °F - 57.0 °F 53% 30.06 in 10.0 mi SSE 15.0 mph 29.9 mph N/A   Clear
9:54 PM 72.0 °F - 52.0 °F 49% 30.12 in 10.0 mi ESE 8.1 mph 24.2 mph N/A   Scattered Clouds
10:54 PM 68.0 °F - 48.9 °F 50% 30.13 in 10.0 mi ENE 13.8 mph 20.7 mph N/A   Mostly Cloudy
11:54 PM 66.0 °F - 48.0 °F 52% 30.15 in 10.0 mi ENE 12.7 mph - N/A   Clear